Orbital Elements at Epoch 2453141.5 (2004-May-16.0) TDB
Reference: JPL 207 (heliocentric ecliptic J2000)
Element | Value | Uncertainty (1-sigma) | Units |
e | 1.000688204104655 | 9.6998e-07 | |
a | -1397.782599782068 | 1.97 | au |
q | .9619597225853242 | 9.1376e-08 | au |
i | 99.64263544704116 | 8.5227e-06 | deg |
node | 210.278431108308 | 1.0385e-05 | deg |
peri | 1.204334608020704 | 1.0881e-05 | deg |
M | 6.468919385957737E-7 | 1.4431e-09 | deg |
tp | 2453141.465700553637 (2004-May-15.96570055) | 8.8899e-06 | TDB |
period | n/a n/a | n/a n/a | d yr |
n | 1.886012770438181E-5 | 3.9872e-08 | deg/d |
Q | n/a | n/a | au |
|
Additional Model Parameters
Parameter | Value | Uncertainty (1-sigma) |
A1 [EST] | 1.635562356445317E-8 | 1.566E-10 |
A2 [EST] | 4.916600112437359E-10 | 7.526E-11 |
A3 [EST] | 4.929063627255129E-10 | 6.246E-11 |
|
| | Orbit Determination Parameters
Additional Information
|